KC3QJO Weather Reports


time (UTC)temp
C
wind
direction
speed
KPH
gust
KPH
rain 1hr
cm
rain 24hr
cm
rain mn
cm
humidity
%
barometer
mb
20260506162551 15 157 12.9 38.6 0.18 0.30 0.30 91 1006.9
20260506162053 15 207 16.1 38.6 0.18 0.30 0.30 91 1007.0
20260506161553 15 161 19.3 33.8 0.18 0.30 0.30 91 1006.8
20260506161056 15 163 14.5 37.0 0.15 0.28 0.28 91 1006.8
20260506160551 15 176 20.9 37.0 0.15 0.28 0.28 91 1006.9
20260506160055 15 190 19.3 35.4 0.15 0.28 0.28 91 1006.9
20260506155555 15 164 20.9 32.2 0.18 0.28 0.28 90 1007.1
20260506155051 15 187 14.5 29.0 0.15 0.25 0.25 90 1007.5
20260506154558 15 203 14.5 27.4 0.15 0.23 0.23 90 1007.7
20260506154052 15 200 14.5 29.0 0.13 0.20 0.20 90 1007.8
20260506153552 15 183 14.5 30.6 0.13 0.18 0.18 89 1007.9
20260506153110 15 210 16.1 51.5 0.10 0.15 0.15 89 1007.8
20260506152552 15 165 20.9 51.5 0.10 0.13 0.13 89 1007.9
20260506152052 15 182 16.1 27.4 0.13 0.13 0.13 89 1007.8
20260506151556 15 221 14.5 27.4 0.13 0.13 0.13 88 1007.9
20260506151055 15 233 12.9 30.6 0.13 0.13 0.13 88 1007.8
20260506150551 15 191 17.7 30.6 0.13 0.13 0.13 88 1007.6
20260506150101 16 191 11.3 20.9 0.13 0.13 0.13 88 1007.6
20260506145552 16 216 12.9 19.3 0.10 0.10 0.10 87 1007.6
20260506145051 16 198 8.0 17.7 0.10 0.10 0.10 87 1007.7
20260506144559 16 214 9.7 19.3 0.08 0.08 0.08 86 1007.6
20260506144051 16 203 11.3 20.9 0.08 0.08 0.08 85 1007.7
20260506143551 16 187 9.7 20.9 0.05 0.05 0.05 85 1007.8
20260506143055 16 227 6.4 16.1 0.05 0.05 0.05 84 1008.0
20260506142552 16 207 8.0 17.7 0.03 0.03 0.03 83 1007.9
20260506142050 16 215 9.7 19.3 0.00 0.00 0.00 83 1008.1
20260506141551 16 186 8.0 24.1 0.00 0.00 0.00 82 1007.9
20260506141055 16 179 8.0 24.1 0.00 0.00 0.00 82 1007.9
20260506140556 16 207 12.9 22.5 0.00 0.00 0.00 82 1007.9
20260506140053 16 199 8.0 19.3 0.00 0.00 0.00 82 1007.6
20260506135551 16 209 9.7 30.6 0.00 0.00 0.00 81 1007.7
20260506135051 16 217 12.9 30.6 0.00 0.00 0.00 81 1007.8
20260506134556 16 211 9.7 22.5 0.00 0.00 0.00 81 1007.8
20260506134055 16 199 11.3 24.1 0.00 0.00 0.00 80 1007.9
20260506133552 16 194 8.0 24.1 0.00 0.00 0.00 80 1008.0
20260506133056 16 210 9.7 25.7 0.00 0.00 0.00 79 1008.0
20260506132552 16 201 9.7 25.7 0.00 0.00 0.00 79 1007.9
20260506132052 17 183 8.0 29.0 0.00 0.00 0.00 78 1007.9
20260506131556 17 216 11.3 37.0 0.00 0.00 0.00 78 1008.0
20260506131051 17 200 16.1 37.0 0.00 0.00 0.00 77 1008.1
20260506130551 17 222 17.7 30.6 0.00 0.00 0.00 76 1008.1
20260506130058 17 240 9.7 27.4 0.00 0.00 0.00 76 1008.1
20260506125553 17 227 11.3 24.1 0.00 0.00 0.00 75 1008.1
20260506125051 17 212 11.3 27.4 0.00 0.00 0.00 74 1008.1
20260506124601 17 208 16.1 27.4 0.00 0.00 0.00 74 1008.0
20260506124051 17 202 11.3 20.9 0.00 0.00 0.00 74 1007.9
20260506123551 17 210 8.0 22.5 0.00 0.00 0.00 74 1008.0
20260506123053 17 212 14.5 25.7 0.00 0.00 0.00 74 1007.9
20260506122552 17 209 12.9 25.7 0.00 0.00 0.00 74 1007.8
20260506122051 17 214 14.5 24.1 0.00 0.00 0.00 74 1007.7
20260506121556 17 229 9.7 25.7 0.00 0.00 0.00 74 1007.8
20260506121051 17 222 11.3 25.7 0.00 0.00 0.00 74 1007.8
20260506120551 17 206 9.7 20.9 0.00 0.00 0.00 74 1007.8
20260506120057 17 218 12.9 22.5 0.00 0.00 0.00 74 1007.8
20260506115552 17 210 9.7 27.4 0.00 0.00 0.00 74 1007.8
20260506115050 17 181 12.9 27.4 0.00 0.00 0.00 74 1007.9
20260506114559 17 170 9.7 25.7 0.00 0.00 0.00 74 1007.9
20260506114051 17 213 14.5 25.7 0.00 0.00 0.00 74 1007.8
20260506113551 17 200 9.7 27.4 0.00 0.00 0.00 74 1007.9
20260506113058 17 204 11.3 27.4 0.00 0.00 0.00 74 1007.9
20260506112551 17 216 12.9 24.1 0.00 0.00 0.00 74 1007.8
20260506112051 17 220 12.9 24.1 0.00 0.00 0.00 74 1007.9
20260506111555 17 184 11.3 27.4 0.00 0.00 0.00 74 1007.8
20260506111051 17 205 12.9 30.6 0.00 0.00 0.00 74 1007.7
20260506110551 17 154 16.1 30.6 0.00 0.00 0.00 74 1007.7
20260506110055 17 163 14.5 30.6 0.00 0.00 0.00 74 1007.6
20260506105554 17 199 12.9 29.0 0.00 0.00 0.00 74 1007.6
20260506105055 17 243 12.9 33.8 0.00 0.00 0.00 74 1007.4
20260506104558 17 211 16.1 33.8 0.00 0.00 0.00 74 1007.5
20260506104051 17 164 11.3 24.1 0.00 0.00 0.00 75 1007.4
20260506103551 17 171 11.3 24.1 0.00 0.00 0.00 74 1007.3
20260506103057 17 204 11.3 24.1 0.00 0.00 0.00 74 1007.3
20260506102551 17 246 12.9 29.0 0.00 0.00 0.00 74 1007.3
20260506102050 17 166 12.9 29.0 0.00 0.00 0.00 74 1007.3
20260506101555 17 168 12.9 25.7 0.00 0.00 0.00 74 1007.3
20260506101053 17 217 14.5 24.1 0.00 0.00 0.00 73 1007.4
20260506100553 17 177 11.3 27.4 0.00 0.00 0.00 73 1007.4
20260506100052 17 187 11.3 27.4 0.00 0.00 0.00 73 1007.5
20260506095553 17 192 9.7 27.4 0.00 0.08 0.00 73 1007.7
20260506095052 17 219 11.3 22.5 0.00 0.08 0.00 73 1007.5
20260506094559 17 168 12.9 24.1 0.00 0.08 0.00 72 1007.5
20260506094051 17 212 12.9 24.1 0.00 0.08 0.00 72 1007.3
20260506093551 17 212 11.3 22.5 0.00 0.08 0.00 72 1007.4
20260506093054 17 176 11.3 32.2 0.00 0.08 0.00 71 1007.5
20260506092551 17 169 12.9 32.2 0.00 0.08 0.00 71 1007.4
20260506092051 17 210 11.3 25.7 0.00 0.08 0.00 71 1007.4
20260506091558 17 202 12.9 25.7 0.00 0.08 0.00 71 1007.3
20260506091054 17 185 12.9 24.1 0.00 0.08 0.00 70 1007.2
20260506090555 17 170 9.7 22.5 0.00 0.08 0.00 70 1007.3
20260506090100 17 164 12.9 24.1 0.00 0.08 0.00 70 1007.4
20260506085551 17 178 16.1 25.7 0.00 0.10 0.00 69 1007.5
20260506085051 17 189 12.9 25.7 0.00 0.10 0.00 69 1007.5
20260506084555 17 206 9.7 22.5 0.00 0.10 0.00 69 1007.6
20260506084051 17 173 11.3 27.4 0.00 0.10 0.00 69 1007.5
20260506083551 17 187 9.7 27.4 0.00 0.10 0.00 68 1007.6
20260506083055 17 193 11.3 22.5 0.00 0.10 0.00 68 1007.5
20260506082551 17 182 12.9 22.5 0.00 0.10 0.00 68 1007.5
20260506082052 17 175 9.7 20.9 0.00 0.10 0.00 67 1007.5
20260506081554 17 160 9.7 25.7 0.00 0.10 0.00 67 1007.6
20260506081052 18 187 12.9 25.7 0.00 0.10 0.00 67 1007.5
20260506080552 18 182 11.3 25.7 0.00 0.10 0.00 66 1007.5
20260506080104 18 206 14.5 25.7 0.00 0.10 0.00 66 1007.5
20260506073054 18 173 11.3 27.4 0.00 0.10 0.00 64 1007.6
20260506072551 18 189 11.3 22.5 0.00 0.10 0.00 64 1007.6
20260506072051 18 184 11.3 22.5 0.00 0.10 0.00 64 1007.6
20260506071604 18 209 11.3 22.5 0.00 0.10 0.00 63 1007.7
20260506071050 18 189 11.3 22.5 0.00 0.10 0.00 63 1007.8
20260506070551 18 176 8.0 17.7 0.00 0.10 0.00 63 1007.8
20260506062051 18 193 8.0 24.1 0.00 0.10 0.00 61 1008.1
20260506061556 18 203 9.7 25.7 0.00 0.10 0.00 60 1008.2
20260506061051 18 223 12.9 25.7 0.00 0.10 0.00 60 1008.2
20260506060551 18 183 11.3 29.0 0.00 0.10 0.00 60 1008.3
20260506051052 18 210 11.3 24.1 0.00 0.10 0.00 59 1008.7
20260506050551 18 200 12.9 24.1 0.00 0.10 0.00 59 1008.7
20260506050104 18 211 11.3 19.3 0.00 0.10 0.00 59 1008.6
20260506045051 18 183 9.7 20.9 0.00 0.10 0.00 58 1008.8
20260506044555 18 175 9.7 20.9 0.00 0.10 0.00 58 1008.7
20260506044053 19 200 9.7 16.1 0.00 0.10 0.00 58 1008.7
20260506043551 18 182 8.0 16.1 0.00 0.10 0.00 57 1008.7
20260506043054 19 197 8.0 19.3 0.00 0.10 0.00 57 1008.7
20260506042551 19 211 9.7 19.3 0.00 0.10 0.00 56 1008.8
20260506042052 19 170 8.0 20.9 0.00 0.10 0.00 56 1008.9
20260506041556 19 177 9.7 25.7 0.00 0.10 0.00 56 1008.8
20260506041052 20 181 12.9 25.7 0.00 0.10 0.00 55 1008.7
20260506040551 20 158 11.3 20.9 0.00 0.10 0.00 55 1008.8
20260506040056 20 227 12.9 20.9 0.00 0.10 0.00 54 1008.7
20260506035555 20 200 11.3 22.5 0.00 0.10 0.10 54 1008.7
20260506035052 20 187 12.9 22.5 0.00 0.10 0.10 54 1008.8
20260506034613 20 181 9.7 22.5 0.00 0.10 0.10 54 1008.8
20260506034054 20 204 11.3 22.5 0.00 0.10 0.10 53 1008.8
20260506033551 20 200 9.7 22.5 0.00 0.10 0.10 53 1008.7
20260506033054 20 194 11.3 22.5 0.00 0.10 0.10 52 1008.6
20260506032554 20 204 11.3 20.9 0.00 0.10 0.10 52 1008.7
20260506032053 20 216 11.3 20.9 0.00 0.10 0.10 51 1008.7
20260506031607 20 191 11.3 20.9 0.00 0.10 0.10 51 1008.7
20260506031052 20 184 9.7 22.5 0.00 0.10 0.10 51 1008.7
20260506030550 20 217 9.7 27.4 0.00 0.10 0.10 51 1008.6
20260506030053 20 160 9.7 27.4 0.00 0.10 0.10 50 1008.7
20260506025553 20 179 12.9 27.4 0.00 0.10 0.10 50 1008.6
20260506025051 20 203 9.7 25.7 0.00 0.10 0.10 50 1008.6
20260506024616 21 165 12.9 25.7 0.00 0.10 0.10 49 1008.7
20260506024051 21 205 8.0 27.4 0.00 0.10 0.10 49 1008.7
20260506023554 21 173 14.5 27.4 0.00 0.10 0.10 48 1008.8
20260506023100 21 187 12.9 25.7 0.00 0.10 0.10 48 1008.8
20260506022553 21 215 11.3 25.7 0.00 0.10 0.10 48 1008.8
20260506022051 21 195 9.7 22.5 0.00 0.10 0.10 48 1008.8
20260506021559 21 188 11.3 25.7 0.00 0.10 0.10 47 1008.8
20260506021054 21 204 8.0 25.7 0.00 0.10 0.10 47 1008.7
20260506020554 21 205 9.7 27.4 0.00 0.10 0.10 46 1008.7
20260506015551 22 201 14.5 30.6 0.00 0.10 0.10 45 1008.6
20260506015051 22 166 16.1 30.6 0.00 0.10 0.10 45 1008.6
20260506014559 22 189 12.9 32.2 0.00 0.10 0.10 45 1008.5
20260506014055 22 168 17.7 32.2 0.00 0.10 0.10 44 1008.5
20260506013555 22 204 11.3 24.1 0.00 0.10 0.10 44 1008.4
20260506013110 22 206 11.3 24.1 0.00 0.10 0.10 43 1008.3
20260506012553 22 230 12.9 38.6 0.00 0.10 0.10 43 1008.2
20260506012050 22 178 14.5 43.5 0.00 0.10 0.10 42 1008.1
20260506011610 22 189 16.1 43.5 0.00 0.10 0.10 42 1008.0
20260506011051 22 202 12.9 25.7 0.00 0.10 0.10 43 1008.0
20260506010551 22 199 12.9 30.6 0.00 0.10 0.10 43 1008.0
20260506010058 22 155 12.9 30.6 0.00 0.10 0.10 42 1007.9
20260506005552 22 212 12.9 24.1 0.00 0.10 0.10 42 1007.8
20260506005053 22 202 12.9 20.9 0.00 0.10 0.10 41 1007.8
20260506004554 22 207 11.3 20.9 0.00 0.10 0.10 41 1007.7
20260506004051 22 189 8.0 20.9 0.00 0.10 0.10 41 1007.8
20260506003551 22 202 8.0 27.4 0.00 0.10 0.10 41 1007.7
20260506003053 23 169 11.3 27.4 0.00 0.10 0.10 41 1007.5
20260506002551 23 224 14.5 32.2 0.00 0.10 0.10 40 1007.5
20260506002051 23 169 12.9 32.2 0.00 0.10 0.10 40 1007.5
20260506001555 23 183 12.9 29.0 0.00 0.10 0.10 40 1007.4
20260506001051 23 170 16.1 33.8 0.00 0.10 0.10 40 1007.3
20260506000551 23 218 16.1 33.8 0.00 0.10 0.10 40 1007.3
20260506000052 23 210 12.9 30.6 0.00 0.10 0.10 40 1007.4
20260505235551 23 208 16.1 32.2 0.00 0.10 0.10 39 1007.3
20260505235052 23 168 14.5 32.2 0.00 0.10 0.10 39 1007.2
20260505234552 23 184 11.3 30.6 0.00 0.10 0.10 38 1007.2
20260505234051 23 216 12.9 33.8 0.00 0.10 0.10 37 1007.1
20260505233554 23 151 19.3 38.6 0.00 0.10 0.10 37 1007.2
20260505233055 23 173 16.1 38.6 0.00 0.10 0.10 37 1007.1
20260505232552 24 192 20.9 38.6 0.00 0.10 0.10 38 1007.3
20260505232058 24 216 12.9 33.8 0.00 0.10 0.10 38 1007.2
20260505231556 24 204 16.1 43.5 0.00 0.10 0.10 37 1007.2
20260505231054 24 218 17.7 43.5 0.00 0.10 0.10 37 1007.1
20260505230551 24 204 19.3 40.2 0.00 0.10 0.10 37 1007.0
20260505230104 24 201 17.7 41.8 0.00 0.10 0.10 37 1007.1
20260505225551 24 170 24.1 43.5 0.00 0.10 0.10 36 1007.0
20260505225052 25 211 20.9 45.1 0.00 0.10 0.10 37 1006.9
20260505224600 25 152 20.9 45.1 0.00 0.10 0.10 36 1006.8
20260505224051 25 207 19.3 41.8 0.00 0.10 0.10 37 1006.8
20260505223553 25 215 20.9 38.6 0.00 0.10 0.10 37 1006.8
20260505223108 25 171 17.7 43.5 0.00 0.10 0.10 37 1006.8
20260505222554 25 216 20.9 43.5 0.00 0.10 0.10 37 1006.7
20260505222054 25 189 19.3 40.2 0.00 0.10 0.10 37 1006.7
20260505221555 25 182 19.3 37.0 0.00 0.10 0.10 37 1006.6
20260505221056 25 191 14.5 33.8 0.00 0.10 0.10 38 1006.6
20260505220557 25 173 14.5 30.6 0.00 0.10 0.10 38 1006.6
20260505220108 25 171 17.7 40.2 0.00 0.10 0.10 38 1006.6
20260505215555 25 220 17.7 40.2 0.00 0.10 0.10 37 1006.7
20260505215051 25 179 17.7 53.1 0.00 0.10 0.10 37 1006.6
20260505214553 25 173 24.1 53.1 0.00 0.10 0.10 36 1006.6
20260505214051 25 162 22.5 43.5 0.00 0.10 0.10 36 1006.8
20260505213555 25 175 14.5 43.5 0.00 0.10 0.10 37 1006.7
20260505213100 25 183 22.5 43.5 0.00 0.10 0.10 36 1006.7
20260505212554 25 213 20.9 49.9 0.00 0.10 0.10 37 1006.7
20260505212051 25 219 19.3 49.9 0.00 0.10 0.10 36 1006.7
20260505211559 25 177 24.1 45.1 0.00 0.10 0.10 36 1006.8
20260505211051 25 164 16.1 45.1 0.00 0.10 0.10 36 1006.8
20260505210550 25 207 20.9 45.1 0.00 0.10 0.10 37 1006.7
20260505210058 25 152 22.5 41.8 0.00 0.10 0.10 36 1006.7
20260505205554 25 214 22.5 38.6 0.00 0.10 0.10 35 1006.6
20260505205052 25 189 16.1 41.8 0.00 0.10 0.10 35 1006.6
20260505204601 25 221 22.5 41.8 0.00 0.10 0.10 35 1006.6
20260505204051 25 208 19.3 41.8 0.00 0.10 0.10 37 1006.5
20260505203551 25 254 14.5 45.1 0.00 0.10 0.10 36 1006.5
20260505203100 25 208 25.7 45.1 0.00 0.10 0.10 35 1006.6
20260505202551 25 208 22.5 35.4 0.00 0.10 0.10 36 1006.4
20260505202052 25 209 19.3 40.2 0.00 0.10 0.10 35 1006.5
20260505201559 26 204 12.9 40.2 0.00 0.10 0.10 36 1006.5
20260505201051 25 182 20.9 41.8 0.00 0.10 0.10 38 1006.7
20260505200556 25 199 22.5 41.8 0.00 0.10 0.10 37 1006.7
20260505200054 25 211 19.3 41.8 0.00 0.10 0.10 37 1006.8
20260505195553 26 207 19.3 51.5 0.00 0.10 0.10 36 1006.8
20260505195052 26 162 16.1 51.5 0.00 0.10 0.10 36 1006.8
20260505194605 26 219 22.5 40.2 0.00 0.10 0.10 36 1006.7
20260505194055 26 249 12.9 37.0 0.00 0.10 0.10 37 1006.8
20260505193551 25 216 16.1 37.0 0.00 0.10 0.10 36 1006.8
20260505193056 25 169 16.1 40.2 0.00 0.10 0.10 36 1006.8
20260505192550 25 179 16.1 45.1 0.00 0.10 0.10 36 1006.8
20260505192051 25 199 27.4 45.1 0.00 0.10 0.10 37 1006.9
20260505191558 25 204 19.3 41.8 0.00 0.10 0.10 36 1006.9
20260505191051 26 225 19.3 35.4 0.00 0.10 0.10 36 1007.0
20260505190555 26 211 16.1 32.2 0.00 0.10 0.10 36 1006.9
20260505190053 26 214 20.9 33.8 0.00 0.10 0.10 36 1007.1
20260505185554 26 193 17.7 33.8 0.00 0.10 0.10 36 1007.3
20260505185051 26 191 11.3 25.7 0.00 0.10 0.10 36 1007.3
20260505184555 26 200 11.3 38.6 0.00 0.10 0.10 33 1007.3
20260505184051 26 207 20.9 38.6 0.00 0.10 0.10 33 1007.4
20260505183555 26 245 12.9 46.7 0.00 0.10 0.10 34 1007.6
20260505183101 26 258 16.1 46.7 0.00 0.10 0.10 33 1007.5
20260505182554 26 206 16.1 38.6 0.00 0.10 0.10 34 1007.6
20260505182051 26 245 19.3 38.6 0.00 0.10 0.10 35 1007.6
20260505181555 26 206 17.7 41.8 0.00 0.10 0.10 34 1007.6
20260505181051 26 189 19.3 41.8 0.00 0.10 0.10 36 1007.7
20260505180550 26 178 20.9 38.6 0.00 0.10 0.10 35 1007.7
20260505180056 26 189 12.9 30.6 0.00 0.10 0.10 36 1007.9
20260505175550 26 237 11.3 30.6 0.00 0.10 0.10 39 1008.0
20260505175054 25 206 17.7 33.8 0.00 0.10 0.10 37 1008.0
20260505174557 25 259 17.7 38.6 0.00 0.10 0.10 38 1007.9
20260505174054 26 214 16.1 38.6 0.00 0.10 0.10 36 1007.9
20260505173551 26 229 12.9 27.4 0.00 0.10 0.10 38 1008.0
20260505173056 25 273 11.3 27.4 0.00 0.10 0.10 41 1008.0
20260505172551 26 237 12.9 27.4 0.00 0.10 0.10 39 1008.2
20260505172051 25 204 12.9 25.7 0.00 0.10 0.10 41 1008.2
20260505171555 26 156 9.7 24.1 0.00 0.10 0.10 40 1008.2
20260505171053 26 219 6.4 24.1 0.00 0.10 0.10 40 1008.1
20260505170550 25 216 11.3 25.7 0.00 0.10 0.10 42 1008.2
20260505170057 25 233 6.4 25.7 0.00 0.10 0.10 43 1008.3
20260505165551 25 181 8.0 32.2 0.00 0.10 0.10 43 1008.5
20260505165051 25 206 12.9 32.2 0.00 0.10 0.10 44 1008.6
20260505164601 25 199 8.0 29.0 0.00 0.10 0.10 43 1008.6
20260505164051 25 193 12.9 29.0 0.00 0.10 0.10 42 1008.7
20260505163550 25 241 11.3 29.0 0.00 0.10 0.10 43 1008.8
20260505163100 25 166 11.3 29.0 0.00 0.10 0.10 43 1008.8